Tillbaka till svenska Fidonet
English   Information   Debug  
FILM   0/18
FNEWS_PUBLISH   4926
FN_SYSOP   42201
FN_SYSOP_OLD1   71952
FTP_FIDO   0/2
FTSC_PUBLIC   0/13972
FUNNY   0/4886
GENEALOGY.EUR   0/71
GET_INFO   105
GOLDED   0/408
HAM   2762/16660
HOLYSMOKE   0/6791
HOT_SITES   0/1
HTMLEDIT   0/71
HUB203   466
HUB_100   264
HUB_400   39
HUMOR   0/29
IC   0/2851
INTERNET   0/424
INTERUSER   0/3
IP_CONNECT   719
JAMNNTPD   0/233
JAMTLAND   0/47
KATTY_KORNER   0/41
LAN   0/16
LINUX-USER   0/19
LINUXHELP   0/1155
LINUX   0/22300
LINUX_BBS   0/957
mail   18.68
mail_fore_ok   249
MENSA   0/341
MODERATOR   0/102
MONTE   0/992
MOSCOW_OKLAHOMA   0/1245
MUFFIN   0/783
MUSIC   0/321
N203_STAT   938
N203_SYSCHAT   313
NET203   321
NET204   69
NET_DEV   0/10
NORD.ADMIN   0/101
NORD.CHAT   0/2572
NORD.FIDONET   189
NORD.HARDWARE   0/28
NORD.KULTUR   0/114
NORD.PROG   0/32
NORD.SOFTWARE   0/88
NORD.TEKNIK   0/58
NORD   0/453
OCCULT_CHAT   0/93
OS2BBS   0/787
OS2DOSBBS   0/580
OS2HW   0/42
OS2INET   0/37
OS2LAN   0/134
OS2PROG   0/36
OS2REXX   0/113
OS2USER-L   207
OS2   0/4830
OSDEBATE   11560/18996
PASCAL   0/490
PERL   0/457
PHP   0/45
POINTS   0/405
POLITICS   0/29554
POL_INC   0/14731
PSION   103
R20_ADMIN   1133
R20_AMATORRADIO   0/2
R20_BEST_OF_FIDONET   16
R20_CHAT   0/896
R20_DEPP   0/3
R20_DEV   400
R20_ECHO2   1830
R20_ECHOPRES   0/35
R20_ESTAT   0/719
R20_FIDONETPROG...
...RAM.MYPOINT
  0/2
R20_FIDONETPROGRAM   0/22
R20_FIDONET   0/248
R20_FILEFIND   0/24
R20_FILEFOUND   0/22
R20_HIFI   0/3
R20_INFO2   3723
R20_INTERNET   0/12940
R20_INTRESSE   0/60
R20_INTR_KOM   0/99
R20_KANDIDAT.CHAT   42
R20_KANDIDAT   28
R20_KOM_DEV   112
R20_KONTROLL   0/13360
R20_KORSET   0/18
R20_LOKALTRAFIK   0/24
R20_MODERATOR   0/1852
R20_NC   76
R20_NET200   245
R20_NETWORK.OTH...
...ERNETS
  0/13
R20_OPERATIVSYS...
...TEM.LINUX
  0/44
R20_PROGRAMVAROR   0/1
R20_REC2NEC   534
R20_SFOSM   0/341
R20_SF   0/108
R20_SPRAK.ENGLISH   0/1
R20_SQUISH   107
R20_TEST   2
R20_WORST_OF_FIDONET   20
RAR   0/9
RA_MULTI   106
RA_UTIL   0/162
REGCON.EUR   0/2068
REGCON   0/13
SCIENCE   0/1206
SF   0/239
SHAREWARE_SUPPORT   0/5146
SHAREWRE   0/14
SIMPSONS   0/169
STATS_OLD1   0/2539.065
STATS_OLD2   0/2530
STATS_OLD3   0/2395.095
STATS_OLD4   0/1692.25
SURVIVOR   0/495
SYSOPS_CORNER   0/3
SYSOP   0/84
TAGLINES   0/112
TEAMOS2   0/4530
TECH   0/2617
TEST.444   0/105
TRAPDOOR   0/19
TREK   0/755
TUB   0/290
UFO   0/40
UNIX   0/1316
USA_EURLINK   0/102
USR_MODEMS   0/1
VATICAN   0/2740
VIETNAM_VETS   0/14
VIRUS   0/378
VIRUS_INFO   0/201
VISUAL_BASIC   0/473
WHITEHOUSE   0/5187
WIN2000   0/101
WIN32   0/30
WIN95   0/4291
WIN95_OLD1   0/70272
WINDOWS   0/1517
WWB_SYSOP   0/419
WWB_TECH   0/810
ZCC-PUBLIC   0/1
ZEC   4

 
4DOS   0/134
ABORTION   0/7
ALASKA_CHAT   0/506
ALLFIX_FILE   0/1313
ALLFIX_FILE_OLD1   0/7997
ALT_DOS   0/152
AMATEUR_RADIO   0/1039
AMIGASALE   0/14
AMIGA   0/331
AMIGA_INT   0/1
AMIGA_PROG   0/20
AMIGA_SYSOP   0/26
ANIME   0/15
ARGUS   0/924
ASCII_ART   0/340
ASIAN_LINK   0/651
ASTRONOMY   0/417
AUDIO   0/92
AUTOMOBILE_RACING   0/105
BABYLON5   0/17862
BAG   135
BATPOWER   0/361
BBBS.ENGLISH   0/382
BBSLAW   0/109
BBS_ADS   0/5290
BBS_INTERNET   0/507
BIBLE   0/3563
BINKD   0/1119
BINKLEY   0/215
BLUEWAVE   0/2173
CABLE_MODEMS   0/25
CBM   0/46
CDRECORD   0/66
CDROM   0/20
CLASSIC_COMPUTER   0/378
COMICS   0/15
CONSPRCY   0/899
COOKING   41444
COOKING_OLD1   19777/24719
COOKING_OLD2   0/40862
COOKING_OLD3   0/37489
COOKING_OLD4   0/35496
COOKING_OLD5   9370
C_ECHO   0/189
C_PLUSPLUS   0/31
DIRTY_DOZEN   0/201
DOORGAMES   0/2285
DOS_INTERNET   0/196
duplikat   6102
ECHOLIST   0/18295
EC_SUPPORT   0/318
ELECTRONICS   0/359
ELEKTRONIK.GER   1534
ENET.LINGUISTIC   0/13
ENET.POLITICS   0/4
ENET.SOFT   0/11701
ENET.SYSOP   34296
ENET.TALKS   0/32
ENGLISH_TUTOR   0/2000
EVOLUTION   0/1335
FDECHO   0/217
FDN_ANNOUNCE   0/7068
FIDONEWS   25062
FIDONEWS_OLD1   0/49742
FIDONEWS_OLD2   6290/35949
FIDONEWS_OLD3   0/30874
FIDONEWS_OLD4   0/37224
FIDO_SYSOP   12922
FIDO_UTIL   0/180
FILEFIND   0/209
FILEGATE   0/212
Möte HAM, 16660 texter
 lista första sista föregående nästa
Text 3861, 880 rader
Skriven 2010-08-12 23:00:20 av Amsat List (1:323/120.0)
Ärende: [keps]  orb10224.amsa
=============================
[keps]  orb10224.amsa

Return-Path: <keps-bounces@amsat.org>
X-Rcpt: craig.healy@chowda.com
X-UIDL: 1281668063.19205

SB KEPS @ AMSAT  $ORB10224.O
Orbital Elements  10224.OSCAR

HR AMSAT ORBITAL ELEMENTS FOR OSCAR SATELLITES
FROM WA5QGD FORT WORTH,TX August 12, 2010
Send Subscribe/unsubscribe to KEPS at http://www.amsat.org/mailman/listinfo/kep
BID: ORB10224.O
TO ALL RADIO AMATEURS BT

Satellite: AO-07
Catalog number: 07530
Epoch time:      10223.58821019
Element set:     850
Inclination:      101.4008 deg
RA of node:       237.3044 deg
Eccentricity:    0.0011772
Arg of perigee:   164.4122 deg
Mean anomaly:     195.7313 deg
Mean motion:   12.53579134 rev/day
Decay rate:       -2.7e-07 rev/day^2
Epoch rev:           63539
Checksum:              268

Satellite: FO-29
Catalog number: 24278
Epoch time:      10223.93777215
Element set:    0398
Inclination:      098.5155 deg
RA of node:       045.3606 deg
Eccentricity:    0.0350822
Arg of perigee:   339.3990 deg
Mean anomaly:     019.3298 deg
Mean motion:   13.52951543 rev/day
Decay rate:       -8.0e-08 rev/day^2
Epoch rev:           69064
Checksum:              332

Satellite: SO-33
Catalog number: 25509
Epoch time:      10223.26622241
Element set:    0772
Inclination:      031.4303 deg
RA of node:       197.0433 deg
Eccentricity:    0.0353433
Arg of perigee:   051.5340 deg
Mean anomaly:     311.6447 deg
Mean motion:   14.28323058 rev/day
Decay rate:       1.94e-06 rev/day^2
Epoch rev:           61593
Checksum:              266

Satellite: RS-22
Catalog number: 27939
Epoch time:      10224.46358057
Element set:     445
Inclination:      097.8847 deg
RA of node:       087.5405 deg
Eccentricity:    0.0012554
Arg of perigee:   239.7486 deg
Mean anomaly:     120.2473 deg
Mean motion:   14.63441200 rev/day
Decay rate:        6.4e-07 rev/day^2
Epoch rev:           36718
Checksum:              312

Satellite: VO-52
Catalog number: 28650
Epoch time:      10223.70905938
Element set:    0573
Inclination:      097.6883 deg
RA of node:       274.9657 deg
Eccentricity:    0.0028357
Arg of perigee:   094.5213 deg
Mean anomaly:     265.9269 deg
Mean motion:   14.81787425 rev/day
Decay rate:       4.39e-06 rev/day^2
Epoch rev:           28491
Checksum:              358

Satellite: SO-67
Catalog number: 35870
Epoch time:      10224.43930909
Element set:       2
Inclination:      097.3278 deg
RA of node:       272.0751 deg
Eccentricity:    0.0001363
Arg of perigee:   262.6943 deg
Mean anomaly:     227.2455 deg
Mean motion:   15.20995255 rev/day
Decay rate:       7.25e-06 rev/day^2
Epoch rev:            5000
Checksum:              288

Satellite: HO-68
Catalog number: 36122
Epoch time:      10224.34213893
Element set:     571
Inclination:      100.4649 deg
RA of node:       284.1923 deg
Eccentricity:    0.0007265
Arg of perigee:   207.0395 deg
Mean anomaly:     153.0340 deg
Mean motion:   13.16281531 rev/day
Decay rate:       -4.5e-07 rev/day^2
Epoch rev:            3160
Checksum:              260

/EX
SB KEPS @ AMSAT  $ORB10224.D
Orbital Elements  10224.MICROS

HR AMSAT ORBITAL ELEMENTS FOR THE MICROSATS
FROM WA5QGD FORT WORTH,TX August 12, 2010
Send Subscribe/unsubscribe to KEPS at http://www.amsat.org/mailman/listinfo/kep
BID: ORB10224.D
TO ALL RADIO AMATEURS BT

Satellite: UO-11
Catalog number: 14781
Epoch time:      10223.67110601
Element set:    0312
Inclination:      098.0520 deg
RA of node:       275.5685 deg
Eccentricity:    0.0010084
Arg of perigee:   062.5727 deg
Mean anomaly:     297.6484 deg
Mean motion:   14.79824586 rev/day
Decay rate:       2.53e-06 rev/day^2
Epoch rev:           42001
Checksum:              284

Satellite: AO-16
Catalog number: 20439
Epoch time:      10223.81272989
Element set:     967
Inclination:      098.3363 deg
RA of node:       179.5421 deg
Eccentricity:    0.0011282
Arg of perigee:   006.7042 deg
Mean anomaly:     353.4291 deg
Mean motion:   14.31869828 rev/day
Decay rate:        1.7e-07 rev/day^2
Epoch rev:            7334
Checksum:              308

Satellite: LO-19
Catalog number: 20442
Epoch time:      10223.45218803
Element set:    0878
Inclination:      098.2969 deg
RA of node:       184.7744 deg
Eccentricity:    0.0011915
Arg of perigee:   002.2717 deg
Mean anomaly:     357.8506 deg
Mean motion:   14.32100064 rev/day
Decay rate:       -1.6e-07 rev/day^2
Epoch rev:           07346
Checksum:              292

Satellite: AO-27
Catalog number: 22825
Epoch time:      10223.80655235
Element set:    0600
Inclination:      098.4882 deg
RA of node:       170.3270 deg
Eccentricity:    0.0009302
Arg of perigee:   103.2466 deg
Mean anomaly:     256.9764 deg
Mean motion:   14.29304788 rev/day
Decay rate:        9.9e-07 rev/day^2
Epoch rev:           87999
Checksum:              327

Satellite: IO-26
Catalog number: 22826
Epoch time:      10223.79205685
Element set:    0338
Inclination:      098.4821 deg
RA of node:       170.8934 deg
Eccentricity:    0.0009884
Arg of perigee:   099.2718 deg
Mean anomaly:     260.9583 deg
Mean motion:   14.29561193 rev/day
Decay rate:        1.0e-07 rev/day^2
Epoch rev:           88010
Checksum:              324

Satellite: GO-32
Catalog number: 25397
Epoch time:      10223.50151346
Element set:    0258
Inclination:      098.3136 deg
RA of node:       227.9084 deg
Eccentricity:    0.0002278
Arg of perigee:   092.0346 deg
Mean anomaly:     268.1095 deg
Mean motion:   14.23182155 rev/day
Decay rate:      -1.19e-06 rev/day^2
Epoch rev:           62791
Checksum:              294

